Stations météo

réclame
Mon MeteoGroup
Inverbervie, Grande-Bretagne (3088): Température de l'air & dewpoint: 16.02.2018 03:00:00 - 22.02.2018 03:00:00 (GMT)Inverbervie, Grande-Bretagne (3088): Température de l'air -20cm & Température de l'air -100cm: 16.02.2018 03:00:00 - 22.02.2018 03:00:00 (GMT)Inverbervie, Grande-Bretagne (3088): Vitesse du vent & gusts: 16.02.2018 03:00:00 - 22.02.2018 03:00:00 (GMT)Inverbervie, Grande-Bretagne (3088): Direction du vent: 16.02.2018 03:00:00 - 22.02.2018 03:00:00 (GMT)Inverbervie, Grande-Bretagne (3088): reduced air pressure: 16.02.2018 03:00:00 - 22.02.2018 03:00:00 (GMT)Inverbervie, Grande-Bretagne (3088): visibility: 16.02.2018 03:00:00 - 22.02.2018 03:00:00 (GMT)Inverbervie, Grande-Bretagne (3088): Quantités de précipitations: 16.02.2018 03:00:00 - 22.02.2018 03:00:00 (GMT)
Date & Time tt [°C] td [°C] tt -20cm [°C] tt -100cm [°C] ff [km/h] ff [knt] fx [km/h] fx [knt] dd ppp [hPa] vv [km] rr [mm]
22.02.2018 03:00:00 - - - - - - - - - - - -
22.02.2018 02:00:00 1,9 1,8 - - 11 6 - - SSW 1027,0 10 -
22.02.2018 01:00:00 2,5 2,4 - - 9 5 - - SSW 1027,5 10 0,0
22.02.2018 00:00:00 2,2 2,0 - - 4 2 - - W 1028,0 7 0,0
21.02.2018 23:00:00 2,0 1,8 - - 4 2 - - WNW 1028,1 6 0,0
21.02.2018 22:00:00 2,9 2,6 - - 8 4 - - S 1028,3 8 0,0
21.02.2018 21:00:00 2,6 2,3 - - 8 4 - - S 1028,3 7 0,0
21.02.2018 20:00:00 2,4 1,8 - - 4 2 - - W 1028,5 11 0,0
21.02.2018 19:00:00 2,3 1,5 - - 9 5 - - SW 1028,4 10 0,0
21.02.2018 18:00:00 2,6 1,6 - - 11 6 - - S 1028,3 12 0,0
21.02.2018 17:00:00 3,6 1,9 - - 11 6 - - S 1028,3 17 0,0
21.02.2018 16:00:00 4,6 1,6 - - 9 5 - - SSE 1028,4 18 0,0
21.02.2018 15:00:00 5,7 1,2 - - 9 5 - - SSE 1028,5 18 0,0
21.02.2018 14:00:00 6,2 1,4 - - 5 3 - - SSE 1028,9 14 0,0
21.02.2018 13:00:00 6,6 1,9 - - 8 4 - - S 1029,3 14 0,0
21.02.2018 12:00:00 6,5 1,6 - - 5 3 - - ESE 1029,8 13 0,0
21.02.2018 11:00:00 5,1 1,8 - - 5 3 - - NW 1030,0 15 0,0
21.02.2018 10:00:00 3,2 0,3 - - 8 4 - - NW 1030,1 16 0,0
21.02.2018 09:00:00 1,9 -0,4 3,9 4,4 11 6 - - NW 1030,1 18 0,0
21.02.2018 08:00:00 1,3 -0,6 - - 11 6 - - NNW 1029,9 17 0,0
21.02.2018 07:00:00 1,4 -0,5 - - 13 7 - - NNW 1029,8 16 0,0
21.02.2018 06:00:00 2,0 0,0 - - 15 8 - - NNW 1029,7 15 0,0
21.02.2018 05:00:00 1,5 -0,2 - - 11 6 - - NW 1029,6 15 0,0
21.02.2018 04:00:00 1,8 -0,1 - - 15 8 - - NNW 1029,8 15 0,0
21.02.2018 03:00:00 2,0 -0,2 - - 15 8 - - NNW 1030,1 17 0,0
21.02.2018 02:00:00 2,3 0,1 - - 18 10 - - NNW 1030,1 16 0,0
21.02.2018 01:00:00 2,2 0,6 - - 16 9 - - NW 1030,0 14 0,0
21.02.2018 00:00:00 2,5 0,6 - - 21 11 46 25 NNW 1029,9 14 0,0
20.02.2018 23:00:00 2,8 0,6 - - 22 12 - - NW 1029,2 13 0,0
20.02.2018 22:00:00 3,4 0,8 - - 24 13 - - NW 1028,7 14 0,0
20.02.2018 21:00:00 3,7 1,3 - - 26 14 - - NNW 1028,5 15 0,0
20.02.2018 20:00:00 3,7 1,5 - - 16 9 - - NNW 1028,4 15 0,0
20.02.2018 19:00:00 4,3 1,6 - - 18 10 - - NW 1027,9 20 0,0
20.02.2018 18:00:00 4,6 2,1 - - 16 9 - - NNW 1027,3 20 0,0
20.02.2018 17:00:00 6,3 2,4 - - 15 8 - - NW 1026,6 21 0,0
20.02.2018 16:00:00 7,6 2,7 - - 22 12 - - NNW 1025,7 29 0,0
20.02.2018 15:00:00 8,1 2,3 - - 31 17 50 27 NNW 1025,1 23 0,0
20.02.2018 14:00:00 8,0 3,1 - - 37 20 54 29 N 1024,1 24 0,0
20.02.2018 13:00:00 7,7 3,2 - - 34 18 46 25 NNW 1024,1 24 0,0
20.02.2018 12:00:00 7,6 3,9 - - 29 16 - - NW 1023,7 24 0,0
20.02.2018 11:00:00 6,6 3,4 - - 34 18 50 27 NW 1023,2 19 0,0
20.02.2018 10:00:00 5,8 3,2 - - 34 18 50 27 NW 1022,2 22 0,0
20.02.2018 09:00:00 4,9 2,9 3,7 4,4 34 18 48 26 NW 1021,4 27 0,0
20.02.2018 08:00:00 4,5 2,6 - - 28 15 - - NW 1020,9 35 0,0
20.02.2018 07:00:00 4,1 2,9 - - 21 11 - - NW 1020,2 30 0,0
20.02.2018 06:00:00 3,6 3,1 - - 4 2 - - SW 1019,9 45 0,2
20.02.2018 05:00:00 3,6 3,0 - - 11 6 - - NNW 1019,2 50 0,0
20.02.2018 04:00:00 4,3 3,7 - - 16 9 54 29 NNW 1018,5 45 0,6
20.02.2018 03:00:00 4,5 4,3 - - 35 19 50 27 NNW 1017,4 8 2,6
20.02.2018 02:00:00 5,2 5,2 - - 26 14 - - NW 1017,1 8 1,2
20.02.2018 01:00:00 5,1 5,1 - - 8 4 - - W 1016,9 0,1 0,0
20.02.2018 00:00:00 4,8 4,8 - - 9 5 - - WSW 1016,7 0,1 0,0
19.02.2018 23:00:00 4,8 4,8 - - 11 6 - - S 1016,7 - 0,0
19.02.2018 22:00:00 5,0 5,0 - - 8 4 - - SW 1016,9 0,2 0,0
19.02.2018 21:00:00 5,3 5,3 - - 5 3 - - SSW 1016,9 9 0,0
19.02.2018 20:00:00 5,3 5,3 - - 5 3 - - SW 1017,2 10 0,0
19.02.2018 19:00:00 5,1 5,1 - - 5 3 - - WSW 1017,1 0,1 0,0
19.02.2018 18:00:00 5,2 5,2 - - 5 3 - - SSE 1016,8 0,1 0,0
19.02.2018 17:00:00 5,4 5,4 - - 0 0 - - N 1016,9 0,4 0,0
19.02.2018 16:00:00 5,5 5,5 - - 0 0 - - N 1016,7 0,3 0,0
19.02.2018 15:00:00 5,8 5,8 - - 5 3 - - E 1016,5 0,9 0,2
19.02.2018 14:00:00 5,7 5,7 - - 4 2 - - ENE 1016,3 2,6 0,2
19.02.2018 13:00:00 5,4 5,4 - - 5 3 - - ENE 1016,1 1,1 0,0
19.02.2018 12:00:00 5,2 5,2 - - 13 7 - - ENE 1016,0 1,0 0,4
19.02.2018 11:00:00 5,1 5,1 - - 8 4 - - ENE 1015,7 0,2 0,0
19.02.2018 10:00:00 5,1 5,1 - - 8 4 - - NE 1015,4 6 0,2
19.02.2018 09:00:00 4,9 4,9 3,4 4,2 8 4 - - NE 1014,9 6 0,2
19.02.2018 08:00:00 4,1 4,1 - - 5 3 - - N 1014,7 6 0,6
19.02.2018 07:00:00 4,1 4,1 - - 0 0 - - N 1014,4 0,5 0,2
19.02.2018 06:00:00 4,2 4,2 - - 0 0 - - N 1013,8 3,1 0,0
19.02.2018 05:00:00 4,3 4,3 - - 8 4 - - WSW 1013,6 1,2 0,2
19.02.2018 04:00:00 4,4 4,4 - - 11 6 - - WSW 1013,3 0,1 0,2
19.02.2018 03:00:00 4,4 4,4 - - 13 7 - - SW 1013,2 0,1 0,2
19.02.2018 02:00:00 4,3 4,3 - - 13 7 - - SSW 1013,6 - 0,0
19.02.2018 01:00:00 4,4 4,4 - - 15 8 - - SW 1013,9 0,1 0,0
19.02.2018 00:00:00 4,6 4,6 - - 16 9 - - SW 1014,1 0,2 0,2
18.02.2018 23:00:00 4,5 4,5 - - 18 10 - - SW 1014,4 0,1 0,0
18.02.2018 22:00:00 4,4 4,4 - - 15 8 - - SW 1014,8 0,2 0,4
18.02.2018 21:00:00 4,4 4,3 - - 18 10 - - SSW 1015,2 0,3 0,2
18.02.2018 20:00:00 4,0 3,8 - - 16 9 - - SSW 1015,5 7 0,2
18.02.2018 19:00:00 3,7 3,2 - - 11 6 - - SSW 1016,0 11 0,2
18.02.2018 18:00:00 4,0 2,9 - - 13 7 - - SSW 1016,4 18 0,0
18.02.2018 17:00:00 3,9 3,0 - - 15 8 - - SSW 1016,4 16 0,0
18.02.2018 16:00:00 3,9 2,6 - - 16 9 - - SSW 1016,6 16 0,0
18.02.2018 15:00:00 4,0 2,8 - - 13 7 - - S 1017,2 14 0,0
18.02.2018 14:00:00 4,0 3,0 - - 9 5 - - SSW 1017,7 12 0,0
18.02.2018 13:00:00 4,1 2,4 - - 8 4 - - S 1018,1 14 0,0
18.02.2018 12:00:00 4,5 3,5 - - 9 5 - - SW 1018,1 16 0,0
18.02.2018 11:00:00 3,3 2,3 - - 11 6 - - W 1018,4 29 0,0
18.02.2018 10:00:00 1,5 0,6 - - 8 4 - - WNW 1018,5 30 0,0
18.02.2018 09:00:00 1,1 0,2 3,4 4,2 8 4 - - NW 1018,5 30 0,0
18.02.2018 08:00:00 1,1 0,5 - - 9 5 - - WNW 1018,4 35 0,0
18.02.2018 07:00:00 0,5 0,1 - - 11 6 - - WNW 1019,2 26 0,0
18.02.2018 06:00:00 1,2 0,5 - - 13 7 - - WSW 1018,6 40 0,0
18.02.2018 05:00:00 0,9 0,0 - - 9 5 - - WNW 1018,6 45 0,0
18.02.2018 04:00:00 1,6 0,9 - - 9 5 - - WSW 1018,3 40 0,0
18.02.2018 03:00:00 1,8 0,2 - - 9 5 - - SSW 1018,2 45 0,0
18.02.2018 02:00:00 1,7 0,1 - - 11 6 - - SSW 1018,4 29 0,0
18.02.2018 01:00:00 2,4 0,5 - - 11 6 - - SW 1018,1 45 0,0
18.02.2018 00:00:00 2,3 0,7 - - 9 5 - - SW 1018,3 50 0,0
17.02.2018 23:00:00 2,9 1,0 - - 8 4 - - S 1018,1 30 0,0
17.02.2018 22:00:00 3,2 0,7 - - 8 4 - - W 1017,5 45 0,0
17.02.2018 21:00:00 2,7 0,7 - - 15 8 - - SW 1017,2 45 0,0
17.02.2018 20:00:00 2,8 1,0 - - 16 9 - - SW 1017,1 50 0,0
17.02.2018 19:00:00 3,0 1,3 - - 22 12 - - WSW 1016,9 45 0,0
17.02.2018 18:00:00 3,6 0,8 - - 18 10 - - WSW 1016,3 40 0,0
17.02.2018 17:00:00 4,7 0,9 - - 22 12 - - WSW 1015,6 45 0,0
17.02.2018 16:00:00 6,6 2,7 - - 21 11 - - WSW 1014,9 40 0,0
17.02.2018 15:00:00 6,6 4,5 - - 24 13 - - SSW 1014,7 20 0,0
17.02.2018 14:00:00 5,1 3,3 - - 22 12 - - SSW 1014,8 21 0,0
17.02.2018 13:00:00 5,0 3,7 - - 21 11 - - SSW 1015,0 18 0,0
17.02.2018 12:00:00 5,7 3,9 - - 28 15 - - SW 1014,6 45 0,0
17.02.2018 11:00:00 4,8 3,5 - - 18 10 - - SSW 1014,4 19 0,0
17.02.2018 10:00:00 4,5 3,8 - - 18 10 - - SSW 1014,1 21 0,0
17.02.2018 09:00:00 2,9 2,4 3,2 4,2 13 7 - - SW 1014,3 20 0,0
17.02.2018 08:00:00 2,1 1,8 - - 15 8 - - SW 1014,2 26 0,0
17.02.2018 07:00:00 2,5 1,8 - - 21 11 - - SW 1013,8 30 0,0
17.02.2018 06:00:00 3,1 2,4 - - 31 17 46 25 SW 1013,4 40 0,0
17.02.2018 05:00:00 3,5 2,7 - - 37 20 54 29 SSW 1013,4 30 0,0
17.02.2018 04:00:00 3,6 2,8 - - 42 23 59 32 SSW 1013,5 14 0,0
17.02.2018 03:00:00 4,3 2,7 - - 48 26 65 35 SSW 1013,7 18 0,0
17.02.2018 02:00:00 4,5 2,8 - - 52 28 63 34 SSW 1013,6 24 0,0
17.02.2018 01:00:00 4,4 2,7 - - 50 27 67 36 SSW 1013,8 13 0,0
17.02.2018 00:00:00 4,5 2,9 - - 55 30 67 36 SSW 1014,1 14 0,2
16.02.2018 23:00:00 4,7 3,4 - - 52 28 67 36 S 1014,1 12 0,0
16.02.2018 22:00:00 4,8 3,5 - - 52 28 65 35 S 1014,1 17 0,0
16.02.2018 21:00:00 4,6 3,3 - - 46 25 57 31 S 1014,8 18 0,0
16.02.2018 20:00:00 4,7 3,7 - - 42 23 55 30 S 1015,3 15 0,0
16.02.2018 19:00:00 4,7 3,4 - - 42 23 54 29 S 1015,8 16 0,0
16.02.2018 18:00:00 4,7 3,0 - - 37 20 48 26 S 1016,1 23 0,0
16.02.2018 17:00:00 4,5 3,0 - - 26 14 - - S 1016,3 23 0,0
16.02.2018 16:00:00 4,6 2,5 - - 31 17 - - SSW 1016,4 19 0,0
16.02.2018 15:00:00 5,3 1,2 - - 35 19 48 26 SW 1016,3 30 0,0
16.02.2018 14:00:00 5,0 0,8 - - 29 16 - - SW 1016,6 50 0,0
16.02.2018 13:00:00 5,4 1,9 - - 22 12 - - WSW 1016,5 35 0,0
16.02.2018 12:00:00 3,7 1,7 - - 29 16 - - WSW 1016,3 50 0,0
16.02.2018 11:00:00 3,8 1,8 - - 26 14 - - WSW 1015,7 29 0,0
16.02.2018 10:00:00 2,3 1,1 - - 34 18 54 29 WSW 1015,0 30 0,0
16.02.2018 09:00:00 1,5 0,5 3,0 4,2 35 19 55 30 W 1013,9 29 0,0
16.02.2018 08:00:00 1,2 0,1 - - 9 5 - - W 1013,4 40 0,0
16.02.2018 07:00:00 1,0 -0,2 - - 22 12 - - WSW 1012,7 40 0,0
16.02.2018 06:00:00 0,5 -0,2 - - 18 10 - - SW 1012,3 30 0,0
16.02.2018 05:00:00 0,2 -0,7 - - 13 7 50 27 WSW 1011,4 45 0,0
16.02.2018 04:00:00 0,8 -0,2 - - 37 20 52 28 WSW 1010,5 50 0,0
16.02.2018 03:00:00 0,7 -0,4 - - 34 18 - - WSW 1009,8 40 0,0

tt = Température de l'air
td = dewpoint
tt -20cm = Température de l'air -20cm
tt -100cm = Température de l'air -100cm
ff = Vitesse du vent
fx = gusts
dd = Direction du vent
ppp = reduced air pressure
vv = visibility
rr = Quantités de précipitations

stations d'obs. à proximité